Location: Falkner
(32.6954°N, 86.0502°W)
Time: 11:19:46
(UTC+00:00)

Cosmos 1939 Rocket - Pass Details

Date: 29 October 2020
Orbit: 533 x 583 km, 97.4° (Epoch: 04 December)

Event Time Altitude Azimuth Distance (km) Brightness Sun altitude
Rises 23:15:24 0° 139° (SE) 2,735 6.1 -4.9°
Reaches altitude 10° 23:17:53 10° 124° (ESE) 1,834 5.1 -5.4°
Maximum altitude 23:20:59 22° 72° (ENE) 1,219 4.0 -6.0°
Drops below altitude 10° 23:24:04 10° 20° (NNE) 1,820 5.2 -6.6°
Sets 23:26:30 0° 6° (N) 2,708 6.2 -7.1°
